Herschel Island, Yukon

Past 24 Hour Conditions

This table is a summary of hourly weather conditions for the past 24 hours. This summary includes the following parameters: temperature, humidity, dew point, wind speed and direction, air pressure, visibility and/or wind chill and humidex.
Date / Time
(PDT)
Conditions Temp (°F) Humidity (%) Dew Point (°F) Wind (mph) Pressure (inches) Visibility (miles)
28 July 2014
15:00 N/A 50   73 41 ESE 8 30.2 N/A
14:00 N/A 49 75 41 ESE 8 30.2 N/A
13:00 N/A 50   74 42 ESE 9 30.2 N/A
12:00 N/A 49 78 42 ESE 10 30.2 N/A
11:00 N/A 48 81 43 ESE 11 30.2 N/A
10:00 N/A 46 88 42 ESE 12 30.2 N/A
9:00 N/A 45 91 42 ESE 12 30.2 N/A
8:00 N/A 45 90 42 ESE 12 30.2 N/A
7:00 N/A 45 91 42 SE 13 30.2 N/A
6:00 N/A 45 92 42 SE 13 30.2 N/A
5:00 N/A 44 92 42 SE 15 30.2 N/A
4:00 N/A 44 92 42 SE 17 30.2 N/A
3:00 N/A 44 92 42 ESE 17 30.2 N/A
2:00 N/A 44 91 41 ESE 17 30.2 N/A
1:00 N/A 44 92 41 ESE 17 30.2 N/A
00:00 N/A 43 91 41 ESE 17 30.2 N/A
27 July 2014
23:00 N/A 43 90 40 ESE 16 30.2 N/A
22:00 N/A 43 90 40 ESE 16 30.2 N/A
21:00 N/A 43 86 39 ESE 15 30.2 N/A
20:00 N/A 43 85 39 SE 16 30.2 N/A
19:00 N/A 43 86 39 SE 15 30.2 N/A
18:00 N/A 43 85 38 SE 12 30.2 N/A
17:00 N/A 43 81 38 SE 13 30.2 N/A
16:00 N/A 43 79 37 SE 11 30.2 N/A
15:00 N/A 42   79 36 SE 6 30.2 N/A
N/A
Not available
 ↑ 
Highest temperature
 ↓ 
Lowest temperature

If you require additional historical weather information, please visit Climate Data Online.